Location: Zagreb
(45.8000°N, 16.0000°E)
Time: 20:39:40
(UTC+01:00)

Oscar 11 - Pass Details

Date: 31 October 2020
Orbit: 613 x 625 km, 97.6° (Epoch: 01 December)

Event Time Altitude Azimuth Distance (km) Brightness Sun altitude
Rises 05:23:12 0° 26° (NNE) 2,891 10.7 -13.0°
Reaches altitude 10° 05:25:50 10° 42° (NE) 1,980 10.1 -12.5°
Maximum altitude 05:29:10 22° 93° (E) 1,363 9.9 -12.0°
Drops below altitude 10° 05:32:29 10° 144° (SE) 1,968 10.3 -11.4°
Sets 05:35:05 0° 160° (SSE) 2,868 10.9 -10.9°
